Retour au catalogue

COSMOS 2251 DEB

ActifLEO
NORAD 34431·DEBRIS·🇷🇺 Russia

Lancé Jun 16, 1993 depuis Plesetsk Cosmodrome

Loading…

Prochains Passages (prochaines 24 heures)

TLE

FraisSource: Space-Track

Époque: Sep 14, 2026, 08:31 UTC

1 34431U 93036RY  26257.35541901  .00000735  00000-0  29071-3 0  9993
2 34431  74.0756  35.9502 0067955 312.5111  47.0309 14.29507394910801

Suivez COSMOS 2251 DEB en temps réel avec AllMySat

Download on the App Store